Starlink 31890

operational
NORAD ID: 59785 Int'l Des: 2024-093 Owner: SPXS Country: US Constellation: starlink
LEOCIRCULAR

关于 Starlink 31890

正在加载描述...

实时位置

正在加载3D地球...

即将过境

高度历史

Altitude vs Time

uPlot chart will show altitude changes over time

两行轨道根数

1 59785U 24093D 25354.56260882 -.00000118 00000-0 52440-5 0 9999
2 59785 43.0029 292.3383 0000950 275.6586 84.4157 15.27572830 90634
Epoch: Dec 20, 2025 • Age: 14 hours

当前状态

高度 491.7 km
速度 7.62 km/s
星下点 -32.59°S, 16.18°E
发射日期 May 18, 2024
运行时间 1.5 years
类型 internet

技术详情

分类 Payload
质量 730.00 kg
干质量 700.00 kg
总质量 730.00 kg
长度 0.30 m
直径 4.10 m
跨度 29.00 m
形状 Box + pan
制造商 SPXS
平台类型 Starlink V2M
阶段状态 In Orbit
所有者/国家 SPXS/US

大型星座

Loading constellations...